Reno - Stead, NV

11:14 PM PDT on August 19, 2017 (GMT -0700)
Reno - Stead

Weather History for KRTS - January, 2013

Change the Weather History Date:

Friday, January 25, 2013

  Actual Average (KRNO) Record (KRNO)
Temperature  
Mean Temperature 40 °F -  
Max Temperature 48 °F 48 °F 67 °F (1975)
Min Temperature 32 °F 21 °F -16 °F (1949)
Degree Days  
Heating Degree Days 25    
Moisture  
Dew Point 36 °F    
Average Humidity 91    
Maximum Humidity 100    
Minimum Humidity 71    
Precipitation  
Precipitation 0.00 in - - ()
Sea Level Pressure  
Sea Level Pressure 30.16 in    
Wind  
Wind Speed 1 mph (ESE)    
Max Wind Speed 12 mph    
Max Gust Speed -    
Visibility 5 miles    
Events Fog , Rain    
Averages and records for this station are not official NWS values.
T = Trace of Precipitation, MM = Missing Value Source: NWS Daily Summary

Daily Weather History Graph

Daily Weather History Graph

Search for Another Location

Airport or City:

Trip Planner

Search our weather history database for the weather conditions in past years. The results will help you decide how hot, cold, wet, or windy it might be!

Date:

Astronomy

Jan. 25, 2013 Rise Set
Actual Time 7:12 AM PST 5:11 PM PST
Civil Twilight 6:43 AM PST 5:40 PM PST
Nautical Twilight 6:11 AM PST 6:13 PM PST
Astronomical Twilight 5:39 AM PST 6:44 PM PST
Moon 4:13 PM PST (1/25) 5:55 AM PST (1/25)
Length of Visible Light 10h 56m
Length of Day
9h 58m
Waxing Gibbous, 98% of the Moon is Illuminated
Jan 25
Waxing Gibbous
Jan 26
Full
Feb 3
Last Quarter
Feb 9
New
Feb 17
First Quarter

Hourly Weather History & Observations

Time (PST) Temp. Windchill Dew Point Humidity Pressure Visibility Wind Dir Wind Speed Gust Speed Precip Events Conditions
12:15 AM 33.8 °F - 32.0 °F 93% 30.25 in 0.5 mi Calm Calm - N/A Fog Fog
12:35 AM 33.8 °F - 33.8 °F 100% 30.25 in 0.5 mi Calm Calm - N/A Fog Fog
12:55 AM 33.8 °F - 32.0 °F 93% 30.25 in 0.5 mi Calm Calm - N/A Fog Fog
1:15 AM 33.8 °F - 32.0 °F 93% 30.25 in 0.2 mi Calm Calm - N/A Fog Fog
1:35 AM 33.8 °F 30.8 °F 33.8 °F 100% 30.25 in 0.2 mi ESE 3.5 mph - N/A Fog Fog
1:55 AM 32.0 °F - 32.0 °F 100% 30.25 in 0.2 mi Calm Calm - N/A Fog Fog
2:15 AM 32.0 °F - 32.0 °F 100% 30.25 in 0.2 mi Calm Calm - N/A Fog Fog
2:55 AM 32.0 °F 28.7 °F 32.0 °F 100% 30.24 in 0.2 mi East 3.5 mph - N/A Fog Fog
3:15 AM 32.0 °F - 32.0 °F 100% 30.23 in 0.2 mi Calm Calm - N/A Fog Fog
3:35 AM 32.0 °F 28.7 °F 32.0 °F 100% 30.24 in 0.2 mi NNW 3.5 mph - N/A Fog Fog
3:55 AM 32.0 °F - 32.0 °F 100% 30.23 in 0.2 mi Calm Calm - N/A Fog Fog
4:15 AM 33.8 °F - 33.8 °F 100% 30.23 in 0.2 mi Calm Calm - N/A Fog Fog
4:35 AM 33.8 °F 30.8 °F 32.0 °F 93% 30.23 in 0.2 mi East 3.5 mph - N/A Fog Fog
4:55 AM 32.0 °F - 32.0 °F 100% 30.23 in 0.5 mi Calm Calm - N/A Fog Fog
5:15 AM 32.0 °F - 32.0 °F 100% 30.23 in 0.2 mi Calm Calm - N/A Fog Fog
5:35 AM 32.0 °F - 32.0 °F 100% 30.22 in 0.2 mi Calm Calm - N/A Fog Fog
5:55 AM 32.0 °F 28.7 °F 32.0 °F 100% 30.22 in 0.2 mi ESE 3.5 mph - N/A Fog Fog
6:15 AM 32.0 °F - 32.0 °F 100% 30.22 in 0.2 mi Calm Calm - N/A Fog Fog
6:35 AM 33.8 °F - 32.0 °F 93% 30.22 in 0.2 mi Calm Calm - N/A Fog Fog
6:55 AM 33.8 °F 30.8 °F 32.0 °F 93% 30.22 in 0.2 mi NNW 3.5 mph - N/A Fog Fog
7:15 AM 32.0 °F - 32.0 °F 100% 30.22 in 0.2 mi Calm Calm - N/A Fog Fog
7:35 AM 32.0 °F 28.7 °F 32.0 °F 100% 30.22 in 0.2 mi SE 3.5 mph - N/A Fog Fog
7:55 AM 33.8 °F - 33.8 °F 100% 30.22 in 0.2 mi Calm Calm - N/A Fog Fog
8:15 AM 33.8 °F - 33.8 °F 100% 30.22 in 0.2 mi Calm Calm - N/A Fog Fog
8:35 AM 33.8 °F - 33.8 °F 100% 30.22 in 0.2 mi Calm Calm - N/A Fog Fog
9:15 AM 35.6 °F - 35.6 °F 100% 30.23 in 0.2 mi Calm Calm - N/A Fog Fog
9:35 AM 35.6 °F - 35.6 °F 100% 30.22 in 1.0 mi Calm Calm - N/A   Overcast
9:55 AM 35.6 °F - 35.6 °F 100% 30.22 in 1.5 mi Calm Calm - N/A   Overcast
10:15 AM 35.6 °F 32.8 °F 35.6 °F 100% 30.22 in 0.8 mi South 3.5 mph - N/A   Overcast
10:35 AM 37.4 °F 34.9 °F 37.4 °F 100% 30.22 in 1.5 mi SSE 3.5 mph - N/A   Overcast
10:55 AM 37.4 °F 33.8 °F 37.4 °F 100% 30.21 in 3.0 mi SE 4.6 mph - N/A   Overcast
11:15 AM 39.2 °F - 39.2 °F 100% 30.20 in 3.0 mi Calm Calm - N/A   Overcast
11:35 AM 39.2 °F 37.0 °F 39.2 °F 100% 30.19 in 5.0 mi SSE 3.5 mph - N/A   Overcast
11:55 AM 41.0 °F - 39.2 °F 93% 30.18 in 5.0 mi Calm Calm - N/A   Overcast
12:15 PM 42.8 °F - 39.2 °F 87% 30.17 in 9.0 mi Calm Calm - N/A   Overcast
12:35 PM 44.6 °F - 39.2 °F 81% 30.15 in 10.0 mi Calm Calm - N/A   Overcast
12:55 PM 44.6 °F 43.1 °F 39.2 °F 81% 30.15 in 10.0 mi SSE 3.5 mph - N/A   Overcast
1:15 PM 46.4 °F 44.3 °F 39.2 °F 76% 30.13 in 10.0 mi SE 4.6 mph - N/A   Mostly Cloudy
1:35 PM 46.4 °F 45.2 °F 39.2 °F 76% 30.13 in 10.0 mi SSE 3.5 mph - N/A   Scattered Clouds
1:55 PM 46.4 °F 45.2 °F 39.2 °F 76% 30.13 in 10.0 mi SSE 3.5 mph - N/A   Mostly Cloudy
2:15 PM 46.4 °F - 39.2 °F 76% 30.13 in 9.0 mi Calm Calm - N/A   Overcast
2:35 PM 46.4 °F - 39.2 °F 76% 30.13 in 9.0 mi Calm Calm - N/A   Overcast
2:55 PM 46.4 °F 44.3 °F 39.2 °F 76% 30.13 in 10.0 mi SE 4.6 mph - N/A   Mostly Cloudy
3:15 PM 48.2 °F - 39.2 °F 71% 30.13 in 10.0 mi SSE 3.5 mph - N/A   Partly Cloudy
3:35 PM 46.4 °F - 39.2 °F 76% 30.12 in 10.0 mi Calm Calm - N/A   Partly Cloudy
3:55 PM 46.4 °F 45.2 °F 39.2 °F 76% 30.11 in 10.0 mi ESE 3.5 mph - N/A   Mostly Cloudy
4:15 PM 46.4 °F - 39.2 °F 76% 30.11 in 10.0 mi Calm Calm - N/A   Mostly Cloudy
4:35 PM 46.4 °F - 39.2 °F 76% 30.11 in 10.0 mi Calm Calm - N/A   Mostly Cloudy
4:55 PM 44.6 °F 40.7 °F 39.2 °F 81% 30.10 in 10.0 mi SSE 6.9 mph - N/A   Overcast
5:15 PM 44.6 °F - 39.2 °F 81% 30.10 in 10.0 mi Calm Calm - N/A   Mostly Cloudy
5:35 PM 42.8 °F - 39.2 °F 87% 30.11 in 10.0 mi Calm Calm - N/A   Overcast
5:55 PM 44.6 °F 41.4 °F 39.2 °F 81% 30.11 in 10.0 mi SSW 5.8 mph - N/A   Overcast
6:15 PM 41.0 °F - 37.4 °F 87% 30.12 in 10.0 mi Calm Calm - N/A   Overcast
6:35 PM 41.0 °F 38.0 °F 37.4 °F 87% 30.11 in 10.0 mi NW 4.6 mph - N/A   Overcast
6:55 PM 41.0 °F 38.0 °F 37.4 °F 87% 30.11 in 10.0 mi ENE 4.6 mph - N/A   Overcast
7:15 PM 39.2 °F 37.0 °F 37.4 °F 93% 30.11 in 10.0 mi East 3.5 mph - N/A   Overcast
7:35 PM 41.0 °F - 37.4 °F 87% 30.10 in 10.0 mi Calm Calm - N/A   Overcast
7:55 PM 41.0 °F 37.1 °F 37.4 °F 87% 30.10 in 10.0 mi North 5.8 mph - N/A   Overcast
8:15 PM 41.0 °F 39.0 °F 37.4 °F 87% 30.10 in 10.0 mi WNW 3.5 mph - N/A   Overcast
8:35 PM 41.0 °F - 37.4 °F 87% 30.10 in 10.0 mi Calm Calm - N/A   Overcast
8:55 PM 41.0 °F - 39.2 °F 93% 30.10 in 8.0 mi Calm Calm - N/A Rain Light Rain
9:15 PM 39.2 °F - 37.4 °F 93% 30.09 in 7.0 mi Calm Calm - N/A Rain Light Rain
9:35 PM 39.2 °F 33.6 °F 37.4 °F 93% 30.07 in 5.0 mi East 8.1 mph - N/A   Overcast
9:55 PM 37.4 °F - 37.4 °F 100% 30.07 in 6.0 mi Calm Calm - N/A   Overcast
10:15 PM 39.2 °F 34.2 °F 37.4 °F 93% 30.08 in 9.0 mi NNE 6.9 mph - N/A   Overcast
10:35 PM 41.0 °F 34.3 °F 37.4 °F 87% 30.06 in 10.0 mi SE 11.5 mph - N/A   Overcast
10:55 PM 39.2 °F 35.9 °F 37.4 °F 93% 30.07 in 10.0 mi North 4.6 mph - N/A   Mostly Cloudy
11:15 PM 39.2 °F 37.0 °F 37.4 °F 93% 30.08 in 10.0 mi ENE 3.5 mph - N/A   Scattered Clouds
11:35 PM 37.4 °F - 35.6 °F 93% 30.07 in 10.0 mi Calm Calm - N/A   Partly Cloudy
11:55 PM 37.4 °F - 35.6 °F 93% 30.06 in 8.0 mi Calm Calm - N/A   Clear